Year,Month,Day,Hour,Minute,Value (Times are PST for barometer in hPa)
2008,01,05,00,00,973.86
2008,01,05,00,01,973.79
2008,01,05,00,02,973.79
2008,01,05,00,03,973.82
2008,01,05,00,04,973.82
2008,01,05,00,05,973.82
2008,01,05,00,06,973.82
2008,01,05,00,07,973.82
2008,01,05,00,08,973.82
2008,01,05,00,09,973.79
2008,01,05,00,10,973.82
2008,01,05,00,11,973.86
2008,01,05,00,12,973.92
2008,01,05,00,13,973.86
2008,01,05,00,14,973.86
2008,01,05,00,15,973.86
2008,01,05,00,16,973.86
2008,01,05,00,17,973.90
2008,01,05,00,18,973.93
2008,01,05,00,19,973.96
2008,01,05,00,20,973.99
2008,01,05,00,21,974.06
2008,01,05,00,22,974.06
2008,01,05,00,23,974.11
2008,01,05,00,24,974.16
2008,01,05,00,25,974.20
2008,01,05,00,26,974.20
2008,01,05,00,27,974.20
2008,01,05,00,28,974.23
2008,01,05,00,29,974.20
2008,01,05,00,30,974.20
2008,01,05,00,31,974.26
2008,01,05,00,32,974.26
2008,01,05,00,33,974.30
2008,01,05,00,34,974.33
2008,01,05,00,35,974.30
2008,01,05,00,36,974.26
2008,01,05,00,37,974.23
2008,01,05,00,38,974.16
2008,01,05,00,39,974.16
2008,01,05,00,40,974.16
2008,01,05,00,41,974.20
2008,01,05,00,42,974.23
2008,01,05,00,43,974.21
2008,01,05,00,44,974.30
2008,01,05,00,45,974.37
2008,01,05,00,46,974.40
2008,01,05,00,47,974.37
2008,01,05,00,48,974.37
2008,01,05,00,49,974.40
2008,01,05,00,50,974.44
2008,01,05,00,51,974.49
2008,01,05,00,52,974.41
2008,01,05,00,53,974.46
2008,01,05,00,54,974.40
2008,01,05,00,55,974.37
2008,01,05,00,56,974.37
2008,01,05,00,57,974.33
2008,01,05,00,58,974.33
2008,01,05,00,59,974.34
2008,01,05,01,00,974.40
2008,01,05,01,01,974.47
2008,01,05,01,02,974.47
2008,01,05,01,03,974.43
2008,01,05,01,04,974.43
2008,01,05,01,05,974.40
2008,01,05,01,06,974.42
2008,01,05,01,07,974.30
2008,01,05,01,08,974.29
2008,01,05,01,09,974.16
2008,01,05,01,10,974.21
2008,01,05,01,11,974.26
2008,01,05,01,12,974.23
2008,01,05,01,13,974.26
2008,01,05,01,14,974.26
2008,01,05,01,15,974.26
2008,01,05,01,16,974.26
2008,01,05,01,17,974.26
2008,01,05,01,18,974.26
2008,01,05,01,19,974.27
2008,01,05,01,20,974.43
2008,01,05,01,21,974.43
2008,01,05,01,22,974.47
2008,01,05,01,23,974.50
2008,01,05,01,24,974.50
2008,01,05,01,25,974.47
2008,01,05,01,26,974.47
2008,01,05,01,27,974.46
2008,01,05,01,28,974.40
2008,01,05,01,29,974.44
2008,01,05,01,30,974.51
2008,01,05,01,31,974.54
2008,01,05,01,32,974.60
2008,01,05,01,33,974.64
2008,01,05,01,34,974.70
2008,01,05,01,35,974.74
2008,01,05,01,36,974.77
2008,01,05,01,37,974.78
2008,01,05,01,38,974.84
2008,01,05,01,39,974.87
2008,01,05,01,40,974.91
2008,01,05,01,41,974.95
2008,01,05,01,42,975.05
2008,01,05,01,43,975.11
2008,01,05,01,44,975.08
2008,01,05,01,45,975.12
2008,01,05,01,46,975.21
2008,01,05,01,47,975.25
2008,01,05,01,48,975.17
2008,01,05,01,49,975.06
2008,01,05,01,50,975.21
2008,01,05,01,51,975.29
2008,01,05,01,52,975.42
2008,01,05,01,53,975.36
2008,01,05,01,54,975.48
2008,01,05,01,55,975.52
2008,01,05,01,56,975.55
2008,01,05,01,57,975.59
2008,01,05,01,58,975.62
2008,01,05,01,59,975.69
2008,01,05,02,00,975.72
2008,01,05,02,01,975.79
2008,01,05,02,02,975.75
2008,01,05,02,03,975.71
2008,01,05,02,04,975.59
2008,01,05,02,05,975.63
2008,01,05,02,06,975.79
2008,01,05,02,07,975.83
2008,01,05,02,08,975.93
2008,01,05,02,09,975.99
2008,01,05,02,10,975.97
2008,01,05,02,11,976.03
2008,01,05,02,12,976.03
2008,01,05,02,13,975.99
2008,01,05,02,14,976.06
2008,01,05,02,15,976.10
2008,01,05,02,16,976.26
2008,01,05,02,17,976.50
2008,01,05,02,18,976.50
2008,01,05,02,19,976.47
2008,01,05,02,20,976.47
2008,01,05,02,21,976.53
2008,01,05,02,22,976.50
2008,01,05,02,23,976.54
2008,01,05,02,24,976.63
2008,01,05,02,25,976.63
2008,01,05,02,26,976.68
2008,01,05,02,27,976.77
2008,01,05,02,28,976.75
2008,01,05,02,29,976.94
2008,01,05,02,30,976.87
2008,01,05,02,31,976.92
2008,01,05,02,32,977.01
2008,01,05,02,33,977.01
2008,01,05,02,34,976.98
2008,01,05,02,35,977.04
2008,01,05,02,36,977.12
2008,01,05,02,37,977.22
2008,01,05,02,38,977.29
2008,01,05,02,39,977.39
2008,01,05,02,40,977.45
2008,01,05,02,41,977.42
2008,01,05,02,42,977.59
2008,01,05,02,43,977.72
2008,01,05,02,44,977.68
2008,01,05,02,45,977.73
2008,01,05,02,46,977.80
2008,01,05,02,47,977.90
2008,01,05,02,48,977.96
2008,01,05,02,49,977.99
2008,01,05,02,50,977.99
2008,01,05,02,51,978.06
2008,01,05,02,52,978.12
2008,01,05,02,53,978.16
2008,01,05,02,54,978.24
2008,01,05,02,55,978.33
2008,01,05,02,56,978.33
2008,01,05,02,57,978.40
2008,01,05,02,58,978.43
2008,01,05,02,59,978.47
2008,01,05,03,00,978.50
2008,01,05,03,01,978.50
2008,01,05,03,02,978.50
2008,01,05,03,03,978.44
2008,01,05,03,04,978.51
2008,01,05,03,05,978.60
2008,01,05,03,06,978.63
2008,01,05,03,07,978.67
2008,01,05,03,08,978.67
2008,01,05,03,09,978.70
2008,01,05,03,10,978.70
2008,01,05,03,11,978.71
2008,01,05,03,12,978.77
2008,01,05,03,13,978.80
2008,01,05,03,14,978.77
2008,01,05,03,15,978.84
2008,01,05,03,16,978.80
2008,01,05,03,17,978.80
2008,01,05,03,18,978.84
2008,01,05,03,19,978.80
2008,01,05,03,20,978.84
2008,01,05,03,21,978.87
2008,01,05,03,22,978.84
2008,01,05,03,23,978.94
2008,01,05,03,24,978.94
2008,01,05,03,25,978.94
2008,01,05,03,26,978.94
2008,01,05,03,27,978.97
2008,01,05,03,28,979.04
2008,01,05,03,29,979.08
2008,01,05,03,30,979.14
2008,01,05,03,31,979.14
2008,01,05,03,32,979.14
2008,01,05,03,33,979.17
2008,01,05,03,34,979.21
2008,01,05,03,35,979.25
2008,01,05,03,36,979.31
2008,01,05,03,37,979.31
2008,01,05,03,38,979.38
2008,01,05,03,39,979.39
2008,01,05,03,40,979.48
2008,01,05,03,41,979.48
2008,01,05,03,42,979.48
2008,01,05,03,43,979.55
2008,01,05,03,44,979.55
2008,01,05,03,45,979.58
2008,01,05,03,46,979.61
2008,01,05,03,47,979.61
2008,01,05,03,48,979.65
2008,01,05,03,49,979.68
2008,01,05,03,50,979.72
2008,01,05,03,51,979.78
2008,01,05,03,52,979.78
2008,01,05,03,53,979.82
2008,01,05,03,54,979.83
2008,01,05,03,55,979.89
2008,01,05,03,56,979.89
2008,01,05,03,57,979.85
2008,01,05,03,58,979.89
2008,01,05,03,59,979.92
2008,01,05,04,00,979.92
2008,01,05,04,01,979.89
2008,01,05,04,02,979.95
2008,01,05,04,03,979.92
2008,01,05,04,04,979.95
2008,01,05,04,05,979.89
2008,01,05,04,06,979.92
2008,01,05,04,07,979.92
2008,01,05,04,08,979.92
2008,01,05,04,09,979.95
2008,01,05,04,10,979.95
2008,01,05,04,11,979.99
2008,01,05,04,12,979.95
2008,01,05,04,13,979.95
2008,01,05,04,14,979.99
2008,01,05,04,15,980.03
2008,01,05,04,16,980.16
2008,01,05,04,17,980.16
2008,01,05,04,18,980.20
2008,01,05,04,19,980.26
2008,01,05,04,20,980.26
2008,01,05,04,21,980.29
2008,01,05,04,22,980.29
2008,01,05,04,23,980.36
2008,01,05,04,24,980.37
2008,01,05,04,25,980.50
2008,01,05,04,26,980.53
2008,01,05,04,27,980.50
2008,01,05,04,28,980.50
2008,01,05,04,29,980.50
2008,01,05,04,30,980.53
2008,01,05,04,31,980.57
2008,01,05,04,32,980.67
2008,01,05,04,33,980.77
2008,01,05,04,34,980.83
2008,01,05,04,35,980.90
2008,01,05,04,36,980.88
2008,01,05,04,37,980.94
2008,01,05,04,38,981.00
2008,01,05,04,39,981.00
2008,01,05,04,40,981.07
2008,01,05,04,41,981.14
2008,01,05,04,42,981.10
2008,01,05,04,43,981.14
2008,01,05,04,44,981.14
2008,01,05,04,45,981.10
2008,01,05,04,46,981.11
2008,01,05,04,47,981.21
2008,01,05,04,48,981.24
2008,01,05,04,49,981.17
2008,01,05,04,50,981.22
2008,01,05,04,51,981.31
2008,01,05,04,52,981.24
2008,01,05,04,53,981.24
2008,01,05,04,54,981.27
2008,01,05,04,55,981.34
2008,01,05,04,56,981.24
2008,01,05,04,57,981.24
2008,01,05,04,58,981.27
2008,01,05,04,59,981.34
2008,01,05,05,00,981.41
2008,01,05,05,01,981.41
2008,01,05,05,02,981.34
2008,01,05,05,03,981.41
2008,01,05,05,04,981.41
2008,01,05,05,05,981.48
2008,01,05,05,06,981.55
2008,01,05,05,07,981.51
2008,01,05,05,08,981.51
2008,01,05,05,09,981.48
2008,01,05,05,10,981.51
2008,01,05,05,11,981.51
2008,01,05,05,12,981.51
2008,01,05,05,13,981.58
2008,01,05,05,14,981.62
2008,01,05,05,15,981.82
2008,01,05,05,16,981.85
2008,01,05,05,17,981.91
2008,01,05,05,18,981.82
2008,01,05,05,19,981.85
2008,01,05,05,20,981.92
2008,01,05,05,21,981.93
2008,01,05,05,22,982.05
2008,01,05,05,23,982.09
2008,01,05,05,24,982.09
2008,01,05,05,25,982.15
2008,01,05,05,26,982.15
2008,01,05,05,27,982.19
2008,01,05,05,28,982.15
2008,01,05,05,29,982.19
2008,01,05,05,30,982.32
2008,01,05,05,31,982.29
2008,01,05,05,32,982.27
2008,01,05,05,33,982.39
2008,01,05,05,34,982.43
2008,01,05,05,35,982.39
2008,01,05,05,36,982.39
2008,01,05,05,37,982.39
2008,01,05,05,38,982.39
2008,01,05,05,39,982.39
2008,01,05,05,40,982.39
2008,01,05,05,41,982.32
2008,01,05,05,42,982.26
2008,01,05,05,43,982.15
2008,01,05,05,44,982.15
2008,01,05,05,45,982.15
2008,01,05,05,46,982.15
2008,01,05,05,47,982.12
2008,01,05,05,48,982.12
2008,01,05,05,49,982.12
2008,01,05,05,50,982.12
2008,01,05,05,51,982.15
2008,01,05,05,52,982.15
2008,01,05,05,53,982.15
2008,01,05,05,54,982.22
2008,01,05,05,55,982.29
2008,01,05,05,56,982.32
2008,01,05,05,57,982.33
2008,01,05,05,58,982.43
2008,01,05,05,59,982.43
2008,01,05,06,00,982.49
2008,01,05,06,01,982.49
2008,01,05,06,02,982.53
2008,01,05,06,03,982.53
2008,01,05,06,04,982.56
2008,01,05,06,05,982.56
2008,01,05,06,06,982.56
2008,01,05,06,07,982.53
2008,01,05,06,08,982.59
2008,01,05,06,09,982.63
2008,01,05,06,10,982.70
2008,01,05,06,11,982.70
2008,01,05,06,12,982.73
2008,01,05,06,13,982.76
2008,01,05,06,14,982.76
2008,01,05,06,15,982.73
2008,01,05,06,16,982.80
2008,01,05,06,17,982.87
2008,01,05,06,18,982.93
2008,01,05,06,19,982.93
2008,01,05,06,20,982.90
2008,01,05,06,21,982.97
2008,01,05,06,22,983.04
2008,01,05,06,23,983.07
2008,01,05,06,24,983.10
2008,01,05,06,25,983.10
2008,01,05,06,26,983.10
2008,01,05,06,27,983.10
2008,01,05,06,28,983.10
2008,01,05,06,29,983.07
2008,01,05,06,30,983.10
2008,01,05,06,31,983.10
2008,01,05,06,32,983.10
2008,01,05,06,33,983.17
2008,01,05,06,34,983.20
2008,01,05,06,35,983.17
2008,01,05,06,36,983.17
2008,01,05,06,37,983.21
2008,01,05,06,38,983.27
2008,01,05,06,39,983.31
2008,01,05,06,40,983.34
2008,01,05,06,41,983.41
2008,01,05,06,42,983.37
2008,01,05,06,43,983.38
2008,01,05,06,44,983.44
2008,01,05,06,45,983.45
2008,01,05,06,46,983.54
2008,01,05,06,47,983.54
2008,01,05,06,48,983.61
2008,01,05,06,49,983.64
2008,01,05,06,50,983.71
2008,01,05,06,51,983.71
2008,01,05,06,52,983.75
2008,01,05,06,53,983.75
2008,01,05,06,54,983.81
2008,01,05,06,55,983.81
2008,01,05,06,56,983.78
2008,01,05,06,57,983.78
2008,01,05,06,58,983.81
2008,01,05,06,59,983.82
2008,01,05,07,00,983.88
2008,01,05,07,01,983.92
2008,01,05,07,02,983.98
2008,01,05,07,03,983.98
2008,01,05,07,04,983.98
2008,01,05,07,05,984.02
2008,01,05,07,06,984.08
2008,01,05,07,07,984.08
2008,01,05,07,08,984.19
2008,01,05,07,09,984.19
2008,01,05,07,10,984.22
2008,01,05,07,11,984.22
2008,01,05,07,12,984.25
2008,01,05,07,13,984.29
2008,01,05,07,14,984.29
2008,01,05,07,15,984.32
2008,01,05,07,16,984.36
2008,01,05,07,17,984.42
2008,01,05,07,18,984.39
2008,01,05,07,19,984.39
2008,01,05,07,20,984.42
2008,01,05,07,21,984.46
2008,01,05,07,22,984.42
2008,01,05,07,23,984.46
2008,01,05,07,24,984.46
2008,01,05,07,25,984.46
2008,01,05,07,26,984.49
2008,01,05,07,27,984.46
2008,01,05,07,28,984.46
2008,01,05,07,29,984.49
2008,01,05,07,30,984.53
2008,01,05,07,31,984.56
2008,01,05,07,32,984.62
2008,01,05,07,33,984.48
2008,01,05,07,34,984.42
2008,01,05,07,35,984.46
2008,01,05,07,36,984.49
2008,01,05,07,37,984.53
2008,01,05,07,38,984.59
2008,01,05,07,39,984.63
2008,01,05,07,40,984.66
2008,01,05,07,41,984.66
2008,01,05,07,42,984.66
2008,01,05,07,43,984.66
2008,01,05,07,44,984.69
2008,01,05,07,45,984.69
2008,01,05,07,46,984.77
2008,01,05,07,47,984.86
2008,01,05,07,48,984.90
2008,01,05,07,49,984.90
2008,01,05,07,50,984.97
2008,01,05,07,51,984.97
2008,01,05,07,52,984.97
2008,01,05,07,53,985.00
2008,01,05,07,54,985.00
2008,01,05,07,55,985.03
2008,01,05,07,56,985.10
2008,01,05,07,57,985.13
2008,01,05,07,58,985.17
2008,01,05,07,59,985.17
2008,01,05,08,00,985.17
2008,01,05,08,01,985.20
2008,01,05,08,02,985.20
2008,01,05,08,03,985.20
2008,01,05,08,04,985.20
2008,01,05,08,05,985.24
2008,01,05,08,06,985.27
2008,01,05,08,07,985.34
2008,01,05,08,08,985.37
2008,01,05,08,09,985.37
2008,01,05,08,10,985.41
2008,01,05,08,11,985.41
2008,01,05,08,12,985.47
2008,01,05,08,13,985.51
2008,01,05,08,14,985.55
2008,01,05,08,15,985.64
2008,01,05,08,16,985.61
2008,01,05,08,17,985.64
2008,01,05,08,18,985.64
2008,01,05,08,19,985.65
2008,01,05,08,20,985.71
2008,01,05,08,21,985.65
2008,01,05,08,22,985.71
2008,01,05,08,23,985.78
2008,01,05,08,24,985.85
2008,01,05,08,25,985.85
2008,01,05,08,26,985.91
2008,01,05,08,27,985.95
2008,01,05,08,28,985.95
2008,01,05,08,29,985.98
2008,01,05,08,30,986.06
2008,01,05,08,31,986.16
2008,01,05,08,32,986.25
2008,01,05,08,33,986.22
2008,01,05,08,34,986.29
2008,01,05,08,35,986.28
2008,01,05,08,36,986.22
2008,01,05,08,37,986.21
2008,01,05,08,38,986.11
2008,01,05,08,39,986.05
2008,01,05,08,40,986.08
2008,01,05,08,41,986.16
2008,01,05,08,42,986.25
2008,01,05,08,43,986.25
2008,01,05,08,44,986.22
2008,01,05,08,45,986.18
2008,01,05,08,46,986.18
2008,01,05,08,47,986.22
2008,01,05,08,48,986.25
2008,01,05,08,49,986.25
2008,01,05,08,50,986.29
2008,01,05,08,51,986.29
2008,01,05,08,52,986.35
2008,01,05,08,53,986.35
2008,01,05,08,54,986.42
2008,01,05,08,55,986.49
2008,01,05,08,56,986.49
2008,01,05,08,57,986.56
2008,01,05,08,58,986.59
2008,01,05,08,59,986.62
2008,01,05,09,00,986.66
2008,01,05,09,01,986.69
2008,01,05,09,02,986.76
2008,01,05,09,03,986.77
2008,01,05,09,04,986.86
2008,01,05,09,05,986.90
2008,01,05,09,06,986.90
2008,01,05,09,07,986.86
2008,01,05,09,08,986.86
2008,01,05,09,09,986.90
2008,01,05,09,10,986.97
2008,01,05,09,11,987.06
2008,01,05,09,12,987.10
2008,01,05,09,13,987.14
2008,01,05,09,14,987.20
2008,01,05,09,15,987.23
2008,01,05,09,16,987.30
2008,01,05,09,17,987.37
2008,01,05,09,18,987.40
2008,01,05,09,19,987.40
2008,01,05,09,20,987.41
2008,01,05,09,21,987.47
2008,01,05,09,22,987.47
2008,01,05,09,23,987.51
2008,01,05,09,24,987.54
2008,01,05,09,25,987.54
2008,01,05,09,26,987.57
2008,01,05,09,27,987.54
2008,01,05,09,28,987.57
2008,01,05,09,29,987.61
2008,01,05,09,30,987.64
2008,01,05,09,31,987.61
2008,01,05,09,32,987.61
2008,01,05,09,33,987.64
2008,01,05,09,34,987.64
2008,01,05,09,35,987.67
2008,01,05,09,36,987.67
2008,01,05,09,37,987.74
2008,01,05,09,38,987.74
2008,01,05,09,39,987.78
2008,01,05,09,40,987.80
2008,01,05,09,41,987.74
2008,01,05,09,42,987.81
2008,01,05,09,43,987.78
2008,01,05,09,44,987.78
2008,01,05,09,45,987.78
2008,01,05,09,46,987.78
2008,01,05,09,47,987.81
2008,01,05,09,48,987.81
2008,01,05,09,49,987.81
2008,01,05,09,50,987.78
2008,01,05,09,51,987.81
2008,01,05,09,52,987.78
2008,01,05,09,53,987.78
2008,01,05,09,54,987.81
2008,01,05,09,55,987.88
2008,01,05,09,56,987.88
2008,01,05,09,57,987.91
2008,01,05,09,58,987.95
2008,01,05,09,59,987.95
2008,01,05,10,00,987.95
2008,01,05,10,01,987.91
2008,01,05,10,02,987.95
2008,01,05,10,03,987.91
2008,01,05,10,04,987.95
2008,01,05,10,05,987.95
2008,01,05,10,06,987.95
2008,01,05,10,07,987.98
2008,01,05,10,08,988.05
2008,01,05,10,09,988.01
2008,01,05,10,10,988.11
2008,01,05,10,11,988.11
2008,01,05,10,12,988.18
2008,01,05,10,13,988.15
2008,01,05,10,14,988.18
2008,01,05,10,15,988.22
2008,01,05,10,16,988.26
2008,01,05,10,17,988.32
2008,01,05,10,18,988.35
2008,01,05,10,19,988.39
2008,01,05,10,20,988.49
2008,01,05,10,21,988.45
2008,01,05,10,22,988.46
2008,01,05,10,23,988.52
2008,01,05,10,24,988.55
2008,01,05,10,25,988.55
2008,01,05,10,26,988.55
2008,01,05,10,27,988.55
2008,01,05,10,28,988.62
2008,01,05,10,29,988.59
2008,01,05,10,30,988.55
2008,01,05,10,31,988.55
2008,01,05,10,32,988.55
2008,01,05,10,33,988.52
2008,01,05,10,34,988.49
2008,01,05,10,35,988.52
2008,01,05,10,36,988.53
2008,01,05,10,37,988.59
2008,01,05,10,38,988.66
2008,01,05,10,39,988.69
2008,01,05,10,40,988.72
2008,01,05,10,41,988.72
2008,01,05,10,42,988.72
2008,01,05,10,43,988.72
2008,01,05,10,44,988.72
2008,01,05,10,45,988.76
2008,01,05,10,46,988.76
2008,01,05,10,47,988.76
2008,01,05,10,48,988.79
2008,01,05,10,49,988.76
2008,01,05,10,50,988.83
2008,01,05,10,51,988.83
2008,01,05,10,52,988.79
2008,01,05,10,53,988.83
2008,01,05,10,54,988.76
2008,01,05,10,55,988.72
2008,01,05,10,56,988.79
2008,01,05,10,57,988.83
2008,01,05,10,58,988.86
2008,01,05,10,59,988.86
2008,01,05,11,00,988.86
2008,01,05,11,01,988.96
2008,01,05,11,02,988.93
2008,01,05,11,03,988.96
2008,01,05,11,04,988.93
2008,01,05,11,05,988.96
2008,01,05,11,06,989.00
2008,01,05,11,07,988.97
2008,01,05,11,08,989.06
2008,01,05,11,09,989.03
2008,01,05,11,10,989.00
2008,01,05,11,11,988.93
2008,01,05,11,12,988.89
2008,01,05,11,13,988.89
2008,01,05,11,14,988.93
2008,01,05,11,15,988.96
2008,01,05,11,16,989.00
2008,01,05,11,17,989.03
2008,01,05,11,18,988.96
2008,01,05,11,19,988.96
2008,01,05,11,20,988.96
2008,01,05,11,21,988.93
2008,01,05,11,22,988.93
2008,01,05,11,23,988.93
2008,01,05,11,24,988.93
2008,01,05,11,25,988.89
2008,01,05,11,26,988.86
2008,01,05,11,27,988.86
2008,01,05,11,28,988.83
2008,01,05,11,29,988.79
2008,01,05,11,30,988.76
2008,01,05,11,31,988.83
2008,01,05,11,32,988.83
2008,01,05,11,33,988.89
2008,01,05,11,34,988.93
2008,01,05,11,35,989.03
2008,01,05,11,36,988.96
2008,01,05,11,37,989.00
2008,01,05,11,38,989.03
2008,01,05,11,39,989.00
2008,01,05,11,40,989.03
2008,01,05,11,41,989.03
2008,01,05,11,42,989.00
2008,01,05,11,43,989.00
2008,01,05,11,44,989.00
2008,01,05,11,45,988.96
2008,01,05,11,46,988.89
2008,01,05,11,47,988.93
2008,01,05,11,48,988.93
2008,01,05,11,49,988.93
2008,01,05,11,50,988.89
2008,01,05,11,51,988.83
2008,01,05,11,52,988.83
2008,01,05,11,53,988.83
2008,01,05,11,54,988.83
2008,01,05,11,55,988.86
2008,01,05,11,56,988.93
2008,01,05,11,57,988.93
2008,01,05,11,58,989.00
2008,01,05,11,59,989.00
2008,01,05,12,00,989.03
2008,01,05,12,01,989.06
2008,01,05,12,02,989.10
2008,01,05,12,03,989.10
2008,01,05,12,04,989.10
2008,01,05,12,05,989.17
2008,01,05,12,06,989.27
2008,01,05,12,07,989.27
2008,01,05,12,08,989.27
2008,01,05,12,09,989.30
2008,01,05,12,10,989.27
2008,01,05,12,11,989.27
2008,01,05,12,12,989.27
2008,01,05,12,13,989.27
2008,01,05,12,14,989.27
2008,01,05,12,15,989.27
2008,01,05,12,16,989.33
2008,01,05,12,17,989.38
2008,01,05,12,18,989.47
2008,01,05,12,19,989.45
2008,01,05,12,20,989.54
2008,01,05,12,21,989.54
2008,01,05,12,22,989.57
2008,01,05,12,23,989.54
2008,01,05,12,24,989.54
2008,01,05,12,25,989.54
2008,01,05,12,26,989.60
2008,01,05,12,27,989.60
2008,01,05,12,28,989.57
2008,01,05,12,29,989.54
2008,01,05,12,30,989.54
2008,01,05,12,31,989.54
2008,01,05,12,32,989.54
2008,01,05,12,33,989.57
2008,01,05,12,34,989.60
2008,01,05,12,35,989.60
2008,01,05,12,36,989.58
2008,01,05,12,37,989.64
2008,01,05,12,38,989.60
2008,01,05,12,39,989.67
2008,01,05,12,40,989.64
2008,01,05,12,41,989.60
2008,01,05,12,42,989.60
2008,01,05,12,43,989.64
2008,01,05,12,44,989.60
2008,01,05,12,45,989.60
2008,01,05,12,46,989.64
2008,01,05,12,47,989.60
2008,01,05,12,48,989.64
2008,01,05,12,49,989.64
2008,01,05,12,50,989.71
2008,01,05,12,51,989.71
2008,01,05,12,52,989.74
2008,01,05,12,53,989.74
2008,01,05,12,54,989.74
2008,01,05,12,55,989.77
2008,01,05,12,56,989.74
2008,01,05,12,57,989.74
2008,01,05,12,58,989.71
2008,01,05,12,59,989.74
2008,01,05,13,00,989.74
2008,01,05,13,01,989.77
2008,01,05,13,02,989.81
2008,01,05,13,03,989.77
2008,01,05,13,04,989.84
2008,01,05,13,05,989.94
2008,01,05,13,06,990.01
2008,01,05,13,07,990.04
2008,01,05,13,08,990.01
2008,01,05,13,09,990.01
2008,01,05,13,10,989.98
2008,01,05,13,11,990.04
2008,01,05,13,12,990.01
2008,01,05,13,13,989.98
2008,01,05,13,14,989.94
2008,01,05,13,15,989.94
2008,01,05,13,16,989.94
2008,01,05,13,17,989.98
2008,01,05,13,18,989.98
2008,01,05,13,19,990.04
2008,01,05,13,20,990.01
2008,01,05,13,21,990.11
2008,01,05,13,22,990.08
2008,01,05,13,23,990.11
2008,01,05,13,24,990.11
2008,01,05,13,25,990.08
2008,01,05,13,26,990.11
2008,01,05,13,27,990.11
2008,01,05,13,28,990.11
2008,01,05,13,29,990.15
2008,01,05,13,30,990.15
2008,01,05,13,31,990.15
2008,01,05,13,32,990.21
2008,01,05,13,33,990.21
2008,01,05,13,34,990.28
2008,01,05,13,35,990.28
2008,01,05,13,36,990.28
2008,01,05,13,37,990.28
2008,01,05,13,38,990.28
2008,01,05,13,39,990.25
2008,01,05,13,40,990.25
2008,01,05,13,41,990.25
2008,01,05,13,42,990.25
2008,01,05,13,43,990.28
2008,01,05,13,44,990.32
2008,01,05,13,45,990.32
2008,01,05,13,46,990.32
2008,01,05,13,47,990.35
2008,01,05,13,48,990.35
2008,01,05,13,49,990.38
2008,01,05,13,50,990.35
2008,01,05,13,51,990.32
2008,01,05,13,52,990.32
2008,01,05,13,53,990.35
2008,01,05,13,54,990.42
2008,01,05,13,55,990.38
2008,01,05,13,56,990.38
2008,01,05,13,57,990.38
2008,01,05,13,58,990.38
2008,01,05,13,59,990.42
2008,01,05,14,00,990.52
2008,01,05,14,01,990.55
2008,01,05,14,02,990.55
2008,01,05,14,03,990.49
2008,01,05,14,04,990.45
2008,01,05,14,05,990.39
2008,01,05,14,06,990.45
2008,01,05,14,07,990.49
2008,01,05,14,08,990.49
2008,01,05,14,09,990.52
2008,01,05,14,10,990.45
2008,01,05,14,11,990.42
2008,01,05,14,12,990.49
2008,01,05,14,13,990.52
2008,01,05,14,14,990.55
2008,01,05,14,15,990.59
2008,01,05,14,16,990.55
2008,01,05,14,17,990.52
2008,01,05,14,18,990.55
2008,01,05,14,19,990.62
2008,01,05,14,20,990.62
2008,01,05,14,21,990.62
2008,01,05,14,22,990.65
2008,01,05,14,23,990.65
2008,01,05,14,24,990.69
2008,01,05,14,25,990.69
2008,01,05,14,26,990.76
2008,01,05,14,27,990.76
2008,01,05,14,28,990.79
2008,01,05,14,29,990.76
2008,01,05,14,30,990.76
2008,01,05,14,31,990.79
2008,01,05,14,32,990.79
2008,01,05,14,33,990.79
2008,01,05,14,34,990.82
2008,01,05,14,35,990.82
2008,01,05,14,36,990.79
2008,01,05,14,37,990.82
2008,01,05,14,38,990.86
2008,01,05,14,39,990.89
2008,01,05,14,40,990.93
2008,01,05,14,41,990.93
2008,01,05,14,42,990.96
2008,01,05,14,43,991.03
2008,01,05,14,44,991.06
2008,01,05,14,45,990.97
2008,01,05,14,46,990.96
2008,01,05,14,47,990.99
2008,01,05,14,48,990.99
2008,01,05,14,49,990.99
2008,01,05,14,50,990.99
2008,01,05,14,51,991.03
2008,01,05,14,52,991.03
2008,01,05,14,53,991.06
2008,01,05,14,54,991.09
2008,01,05,14,55,991.16
2008,01,05,14,56,991.09
2008,01,05,14,57,991.09
2008,01,05,14,58,991.16
2008,01,05,14,59,991.20
2008,01,05,15,00,991.26
2008,01,05,15,01,991.26
2008,01,05,15,02,991.30
2008,01,05,15,03,991.33
2008,01,05,15,04,991.30
2008,01,05,15,05,991.26
2008,01,05,15,06,991.26
2008,01,05,15,07,991.26
2008,01,05,15,08,991.26
2008,01,05,15,09,991.33
2008,01,05,15,10,991.27
2008,01,05,15,11,991.37
2008,01,05,15,12,991.43
2008,01,05,15,13,991.40
2008,01,05,15,14,991.47
2008,01,05,15,15,991.47
2008,01,05,15,16,991.43
2008,01,05,15,17,991.50
2008,01,05,15,18,991.53
2008,01,05,15,19,991.60
2008,01,05,15,20,991.60
2008,01,05,15,21,991.60
2008,01,05,15,22,991.57
2008,01,05,15,23,991.50
2008,01,05,15,24,991.50
2008,01,05,15,25,991.57
2008,01,05,15,26,991.64
2008,01,05,15,27,991.57
2008,01,05,15,28,991.47
2008,01,05,15,29,991.53
2008,01,05,15,30,991.67
2008,01,05,15,31,991.77
2008,01,05,15,32,991.81
2008,01,05,15,33,991.81
2008,01,05,15,34,991.74
2008,01,05,15,35,991.77
2008,01,05,15,36,991.74
2008,01,05,15,37,991.81
2008,01,05,15,38,991.81
2008,01,05,15,39,991.74
2008,01,05,15,40,991.77
2008,01,05,15,41,991.84
2008,01,05,15,42,991.84
2008,01,05,15,43,991.87
2008,01,05,15,44,991.94
2008,01,05,15,45,991.94
2008,01,05,15,46,991.87
2008,01,05,15,47,991.91
2008,01,05,15,48,991.91
2008,01,05,15,49,991.94
2008,01,05,15,50,991.91
2008,01,05,15,51,991.98
2008,01,05,15,52,991.98
2008,01,05,15,53,991.98
2008,01,05,15,54,991.98
2008,01,05,15,55,992.01
2008,01,05,15,56,992.01
2008,01,05,15,57,992.04
2008,01,05,15,58,992.01
2008,01,05,15,59,992.04
2008,01,05,16,00,992.08
2008,01,05,16,01,992.11
2008,01,05,16,02,992.14
2008,01,05,16,03,992.11
2008,01,05,16,04,992.14
2008,01,05,16,05,992.14
2008,01,05,16,06,992.11
2008,01,05,16,07,992.11
2008,01,05,16,08,992.14
2008,01,05,16,09,992.14
2008,01,05,16,10,992.14
2008,01,05,16,11,992.18
2008,01,05,16,12,992.25
2008,01,05,16,13,992.25
2008,01,05,16,14,992.25
2008,01,05,16,15,992.28
2008,01,05,16,16,992.25
2008,01,05,16,17,992.28
2008,01,05,16,18,992.35
2008,01,05,16,19,992.42
2008,01,05,16,20,992.42
2008,01,05,16,21,992.42
2008,01,05,16,22,992.48
2008,01,05,16,23,992.52
2008,01,05,16,24,992.62
2008,01,05,16,25,992.62
2008,01,05,16,26,992.65
2008,01,05,16,27,992.72
2008,01,05,16,28,992.65
2008,01,05,16,29,992.72
2008,01,05,16,30,992.75
2008,01,05,16,31,992.75
2008,01,05,16,32,992.79
2008,01,05,16,33,992.86
2008,01,05,16,34,992.86
2008,01,05,16,35,992.79
2008,01,05,16,36,992.82